Skip Page Navigation
NASA JPL Caltech
NASA Logo - Jet Propulsion Laboratory + View the NASA Portal
+ Center for Near-Earth Object Studies
JPL Home Earth Solar System Stars & Galaxies Technology
JPL Solar System Dynamics
BODIES ORBITS EPHEMERIDES TOOLS PHYSICAL DATA DISCOVERY FAQ SITE MAP
JPL Small-Body Database Browser
Search: [ help ]  
91937 (1999 VQ58)
Classification: Outer Main-belt Asteroid          SPK-ID: 2091937
Ephemeris | Orbit Diagram | Orbital Elements | Mission Design | Physical Parameters | Discovery Circumstances | Close-Approach Data ]

[ show orbit diagram ]
Orbital Elements at Epoch 2459000.5 (2020-May-31.0) TDB
Reference: JPL 20 (heliocentric ecliptic J2000)
 Element Value Uncertainty (1-sigma)   Units 
e .06748318210521158 5.3685e-08  
a 3.203956390577816 2.2093e-08 au
q 2.987743218015297 1.6481e-07 au
i 14.279453143041 5.3927e-06 deg
node 52.27832838491177 1.7799e-05 deg
peri 15.70343309592067 4.2237e-05 deg
M 199.7821470628506 3.7897e-05 deg
tp 2459932.759307430924
(2022-Dec-19.25930743)
0.00022219 TDB
period 2094.73129568643
5.74
2.1667e-05
5.932e-08
d
yr
n .1718597515305801 1.7776e-09 deg/d
Q 3.420169563140335 2.3584e-08 au
  Orbit Determination Parameters
   # obs. used (total)      1387  
   data-arc span      7208 days (19.73 yr)  
   first obs. used      1999-10-07  
   last obs. used      2019-07-02  
   planetary ephem.      DE431  
   SB-pert. ephem.      SB431-N16  
   condition code      0  
   norm. resid. RMS      .51389  
   source      ORB  
   producer      Otto Matic  
   solution date      2020-Feb-23 22:40:02  

Additional Information
 Earth MOID = 2.00311 au 
 Jupiter MOID = 1.95075 au 
 T_jup = 3.141 
[ show covariance matrix ]

Ephemeris | Orbit Diagram | Orbital Elements | Mission Design | Physical Parameters | Discovery Circumstances | Close-Approach Data ]

Physical Parameter Table
Parameter Symbol Value Units Sigma Reference Notes
absolute magnitude H 13.4   n/a MPO439647  
diameter diameter 12.247 km 0.135 urn:nasa:pds:neowise_diameters_albedos::2.0[mainbelt] (http://adsabs.harvard.edu/abs/2011ApJ...741...68M)  
rotation period rot_per 17.066 h n/a LCDB (Rev. 2019-August); Warner et al., 2009 Result based on fragmentary lightcurve(s), may be completely wrong.
Published Reference List:
[Waszczak, A.; Chang, C.-K.; Ofeck, E.O.; Laher, F.; et al. (2015) Astron. J. 150, A75.]
geometric albedo albedo 0.068   0.006 urn:nasa:pds:neowise_diameters_albedos::2.0[mainbelt] (http://adsabs.harvard.edu/abs/2011ApJ...741...68M)  

91937 (1999 VQ58)          Discovered 1999-Nov-04 by LINEAR at Socorro
Reference: 20041028/Numbers.arcLast Updated: 2004-10-29

[ show close-approach data ]
Alternate Designations
 1999 VQ58 = 1999 UW60 
Ephemeris | Orbit Diagram | Orbital Elements | Mission Design | Physical Parameters | Discovery Circumstances | Close-Approach Data ]
ABOUT SSD CREDITS/AWARDS PRIVACY/COPYRIGHT GLOSSARY LINKS
FirstGov 2020-Oct-26 08:34 UT
(server date/time)  
NASA Home Page
Site Manager:   Ryan S. Park
Webmaster  Alan B. Chamberlin